FW9606 Weather Reports


time (UTC)temp
C
wind
direction
speed
KPH
gust
KPH
rain 1hr
cm
rain 24hr
cm
rain mn
cm
humidity
%
barometer
mb
20260508163043 13 360 6.4 19.3 0.00 0.03 0.00 59 1016.7
20260508161556 13 179 4.8 16.1 0.00 0.03 0.00 60 1016.7
20260508160056 13 187 6.4 17.7 0.00 0.03 0.00 62 1016.7
20260508154544 14 186 11.3 19.3 0.00 0.08 0.00 59 1016.5
20260508153047 15 188 8.0 17.7 0.00 0.08 0.00 61 1016.5
20260508151554 15 188 8.0 22.5 0.00 0.08 0.00 61 1016.5
20260508150044 15 184 9.7 24.1 0.00 0.08 0.00 62 1016.4
20260508144549 15 186 11.3 22.5 0.00 0.20 0.00 59 1016.4
20260508143051 15 232 11.3 20.9 0.00 0.20 0.00 55 1016.5
20260508141548 15 196 11.3 19.3 0.00 0.20 0.00 59 1016.4
20260508140051 15 204 6.4 22.5 0.00 0.20 0.00 62 1016.3
20260508134556 16 212 8.0 25.7 0.00 0.20 0.00 62 1016.1
20260508133104 16 202 9.7 20.9 0.00 0.20 0.00 65 1016.2
20260508131550 15 207 11.3 24.1 0.00 0.20 0.00 63 1016.0
20260508130050 13 216 6.4 20.9 0.00 0.20 0.00 68 1016.0
20260508124550 13 178 9.7 22.5 0.00 0.20 0.00 65 1016.0
20260508123052 14 360 9.7 25.7 0.00 0.20 0.00 63 1015.9
20260508121559 15 184 9.7 27.4 0.00 0.20 0.00 63 1015.7
20260508120049 14 215 9.7 20.9 0.00 0.20 0.00 64 1015.7
20260508114550 13 180 8.0 25.7 0.00 0.20 0.00 64 1015.7
20260508113104 12 190 12.9 27.4 0.00 0.20 0.00 65 1015.6
20260508111559 12 360 12.9 24.1 0.00 0.20 0.00 68 1015.6
20260508110051 12 213 8.0 20.9 0.00 0.20 0.00 71 1015.6
20260508104553 12 360 8.0 27.4 0.00 0.20 0.00 73 1015.4
20260508103049 11 360 12.9 27.4 0.00 0.20 0.00 72 1015.5
20260508101552 11 360 9.7 22.5 0.00 0.20 0.00 75 1015.4
20260508100050 11 200 6.4 25.7 0.00 0.20 0.00 74 1015.3
20260508094559 11 227 8.0 20.9 0.00 0.20 0.00 75 1015.3
20260508093050 11 360 8.0 20.9 0.00 0.20 0.00 77 1015.2
20260508091612 11 202 6.4 22.5 0.00 0.20 0.00 78 1015.2
20260508090106 10 360 6.4 17.7 0.00 0.20 0.00 79 1015.1
20260508084556 10 360 9.7 22.5 0.00 0.20 0.00 79 1015.1
20260508083049 10 360 9.7 24.1 0.00 0.20 0.00 81 1015.0
20260508081548 9 360 11.3 27.4 0.00 0.20 0.00 81 1014.7
20260508080059 9 240 11.3 25.7 0.00 0.20 0.00 83 1014.5
20260508074545 9 196 8.0 24.1 0.00 0.20 0.00 86 1014.2
20260508073052 9 360 8.0 17.7 0.00 0.20 0.00 87 1014.2
20260508071553 9 215 8.0 20.9 0.00 0.20 0.00 87 1014.0
20260508070059 8 360 6.4 19.3 0.00 0.20 0.00 87 1013.8
20260508064551 8 360 8.0 17.7 0.00 0.20 0.00 88 1013.5
20260508063125 8 211 8.0 20.9 0.00 0.20 0.00 90 1013.3
20260508061552 8 360 8.0 17.7 0.00 0.20 0.00 90 1013.3
20260508060053 8 133 9.7 20.9 0.00 0.20 0.00 91 1013.2
20260508054550 7 0 1.6 17.7 0.00 0.20 0.00 91 1012.9
20260508053055 7 0 1.6 8.0 0.00 0.20 0.00 91 1012.8
20260508051612 7 161 3.2 11.3 0.00 0.20 0.00 91 1012.5
20260508050046 7 147 1.6 8.0 0.00 0.20 0.00 91 1012.5
20260508044550 7 178 0.0 8.0 0.00 0.20 0.00 90 1012.6
20260508043051 7 198 0.0 4.8 0.00 0.20 0.00 90 1012.5
20260508041554 7 0 1.6 6.4 0.00 0.20 0.00 89 1012.4
20260508040051 8 0 1.6 6.4 0.00 0.20 0.00 89 1012.3
20260508034551 8 115 0.0 3.2 0.00 0.20 0.00 88 1012.3
20260508033052 8 0 0.0 4.8 0.00 0.20 0.00 88 1012.2
20260508031551 8 355 0.0 4.8 0.00 0.20 0.00 87 1012.2
20260508030056 8 0 1.6 16.1 0.00 0.20 0.00 87 1012.3
20260508024550 8 0 0.0 17.7 0.00 0.20 0.00 86 1012.1
20260508023051 8 67 1.6 17.7 0.00 0.20 0.00 87 1011.9
20260508021554 8 107 0.0 12.9 0.00 0.20 0.00 87 1011.8
20260508020104 8 92 3.2 19.3 0.00 0.20 0.00 87 1012.0
20260508014553 8 143 3.2 14.5 0.00 0.20 0.00 87 1011.9
20260508013050 8 122 1.6 16.1 0.00 0.20 0.00 87 1012.1
20260508011554 8 160 3.2 20.9 0.00 0.20 0.00 88 1011.9
20260508010100 7 98 1.6 17.7 0.00 0.20 0.00 88 1011.9
20260508004551 7 115 1.6 9.7 0.00 0.20 0.00 89 1011.9
20260508003100 7 0 1.6 12.9 0.00 0.20 0.00 89 1011.9
20260508001548 7 0 0.0 8.0 0.00 0.20 0.00 89 1012.0
20260508000049 8 0 0.0 6.4 0.00 0.20 0.00 88 1012.2
20260507234550 8 134 1.6 14.5 0.00 0.20 0.00 88 1012.0
20260507233045 8 134 1.6 14.5 0.00 0.20 0.00 87 1012.1
20260507231552 8 188 6.4 19.3 0.00 0.20 0.00 87 1012.1
20260507230107 8 135 6.4 30.6 0.00 0.20 0.00 87 1012.0
20260507224555 8 360 3.2 11.3 0.00 0.20 0.20 87 1012.0
20260507223133 8 153 4.8 19.3 0.00 0.20 0.20 86 1012.0
20260507221554 8 0 1.6 12.9 0.00 0.20 0.20 86 1012.0
20260507220051 8 167 8.0 20.9 0.00 0.20 0.20 86 1012.0
20260507214557 8 171 6.4 24.1 0.00 0.20 0.20 86 1012.0
20260507213122 8 165 4.8 16.1 0.00 0.20 0.20 86 1011.9
20260507211548 8 134 4.8 16.1 0.00 0.20 0.20 87 1012.0
20260507210101 8 140 3.2 14.5 0.00 0.20 0.20 86 1012.0
20260507204548 9 115 1.6 16.1 0.00 0.20 0.20 85 1012.0
20260507203048 9 184 0.0 12.9 0.00 0.20 0.20 85 1011.9
20260507201604 9 0 0.0 6.4 0.00 0.20 0.20 86 1011.8
20260507200103 9 0 0.0 4.8 0.00 0.20 0.20 88 1011.7
20260507194549 9 0 0.0 6.4 0.00 0.20 0.20 88 1011.6
20260507193053 9 0 0.0 3.2 0.00 0.20 0.20 88 1011.5
20260507191548 10 0 0.0 0.0 0.00 0.20 0.20 88 1011.5
20260507190054 10 0 0.0 4.8 0.00 0.20 0.20 88 1011.5
20260507184549 10 0 0.0 1.6 0.00 0.20 0.20 88 1011.4
20260507183052 10 0 0.0 4.8 0.00 0.20 0.20 87 1011.5
20260507181548 10 133 1.6 3.2 0.00 0.20 0.20 87 1011.4
20260507180054 10 94 1.6 4.8 0.00 0.20 0.20 88 1011.3
20260507174555 10 0 0.0 8.0 0.00 0.20 0.20 86 1011.3
20260507173054 9 226 1.6 12.9 0.00 0.20 0.20 87 1011.2
20260507171600 8 0 1.6 14.5 0.00 0.20 0.20 86 1011.3
20260507170051 8 140 0.0 9.7 0.03 0.20 0.20 86 1011.4
20260507164547 8 0 0.0 17.7 0.03 0.20 0.20 85 1011.4